STARLINK-30311 (57637 NORAD) Tracking and Keplerian Element Data

This shows tracking and keplerian element data for the satellite.

Feedback or suggestion? Click here.




ElementValue
Catalog57637
NameSTARLINK-30311
Epoch Orbit279
Epoch Day238.91667824
Epoch Year2023
RAAN95.9287
Inclination43.0007
Eccentricity0.0001477
Argument of Perigee166.3127
Mean Anonmoly256.9757
Mean Motion15.86039687
Decay Rate-0.00893096
L11 57637U 23122F 23238.91667824 -.00893096 00000+0 -38682-2 0 9994
L22 57637 43.0007 95.9287 0001477 166.3127 256.9757 15.86039687 2791



Live tracking and technical data element details for STARLINK-30311 (NORAD 57637). STARLINK-30311 can be tracked NOW for your location showing map with azimuth and elevation plus other details from your city location.







IsCatalogInMostPopularTable: catalog: 57637, numindb: 7
Update: records affected: 1



GetName: 57637 STARLINK-30311

Hit Count: updated at: Tue, 26 Sep 2023 11:38:24 GMT